Date,MW,Mvar
01/01/2018 00:15,1,0.5
01/01/2018 00:30,1.01,0.49
01/01/2018 00:45,1.02,0.5
01/01/2018 01:00,1.02,0.51
01/01/2018 01:15,1.03,0.51
01/01/2018 01:30,1.02,0.52
01/01/2018 01:45,1.02,0.52
01/01/2018 02:00,1.01,0.51
01/01/2018 02:15,1.04,0.51
01/01/2018 02:30,1.02,0.5
01/01/2018 02:45,1.02,0.52
01/01/2018 03:00,1.02,0.51
01/01/2018 03:15,1.02,0.52
01/01/2018 03:30,1,0.5
01/01/2018 03:45,1,0.49
01/01/2018 04:00,1,0.5
01/01/2018 04:15,1.02,0.52
01/01/2018 04:30,1.01,0.5
01/01/2018 04:45,1.04,0.53
01/01/2018 05:00,1.04,0.53
01/01/2018 05:15,1.04,0.52
01/01/2018 05:30,1.03,0.51
01/01/2018 05:45,1.03,0.52
01/01/2018 06:00,1.03,0.5
01/01/2018 06:15,1.01,0.51
01/01/2018 06:30,1.01,0.51
01/01/2018 06:45,1.13,0.54
01/01/2018 07:00,1.08,0.53
01/01/2018 07:15,1.19,0.55
01/01/2018 07:30,1.12,0.56
01/01/2018 07:45,1.16,0.56
01/01/2018 08:00,1.2,0.57
01/01/2018 08:15,1.17,0.55
01/01/2018 08:30,1.18,0.57
01/01/2018 08:45,1.2,0.58
01/01/2018 09:00,1.19,0.58
01/01/2018 09:15,1.2,0.59
01/01/2018 09:30,1.22,0.59
01/01/2018 09:45,1.25,0.6
01/01/2018 10:00,1.28,0.62
01/01/2018 10:15,1.28,0.64
01/01/2018 10:30,1.28,0.64
01/01/2018 10:45,1.31,0.66
01/01/2018 11:00,1.28,0.66
01/01/2018 11:15,1.28,0.65
01/01/2018 11:30,1.32,0.65
01/01/2018 11:45,1.31,0.65
01/01/2018 12:00,1.32,0.66
01/01/2018 12:15,1.34,0.67
01/01/2018 12:30,1.33,0.66
01/01/2018 12:45,1.33,0.66
01/01/2018 13:00,1.34,0.66
01/01/2018 13:15,1.31,0.67
01/01/2018 13:30,1.34,0.67
01/01/2018 13:45,1.35,0.66
01/01/2018 14:00,1.39,0.68
01/01/2018 14:15,1.38,0.69
01/01/2018 14:30,1.37,0.7
01/01/2018 14:45,1.36,0.68
01/01/2018 15:00,1.36,0.71
01/01/2018 15:15,1.36,0.69
01/01/2018 15:30,1.33,0.68
01/01/2018 15:45,1.34,0.68
01/01/2018 16:00,1.33,0.67
01/01/2018 16:15,1.36,0.69
01/01/2018 16:30,1.35,0.68
01/01/2018 16:45,1.34,0.67
01/01/2018 17:00,1.34,0.66
01/01/2018 17:15,1.36,0.7
01/01/2018 17:30,1.33,0.66
01/01/2018 17:45,1.35,0.65
01/01/2018 18:00,1.32,0.65
01/01/2018 18:15,1.34,0.63
01/01/2018 18:30,1.34,0.64
01/01/2018 18:45,1.32,0.62
01/01/2018 19:00,1.29,0.61
01/01/2018 19:15,1.28,0.61
01/01/2018 19:30,1.29,0.62
01/01/2018 19:45,1.27,0.61
01/01/2018 20:00,1.23,0.59
01/01/2018 20:15,1.19,0.56
01/01/2018 20:30,1.23,0.58
01/01/2018 20:45,1.22,0.56
01/01/2018 21:00,1.21,0.56
01/01/2018 21:15,1.25,0.56
01/01/2018 21:30,1.25,0.57
01/01/2018 21:45,1.22,0.55
01/01/2018 22:00,1.21,0.54
01/01/2018 22:15,1.22,0.54
01/01/2018 22:30,1.18,0.55
01/01/2018 22:45,1.06,0.54
01/01/2018 23:00,1.05,0.52
01/01/2018 23:15,1.05,0.53
01/01/2018 23:30,1.06,0.52
01/01/2018 23:45,1.05,0.52
02/01/2018 00:00,1.06,0.52
02/01/2018 00:15,1.06,0.51
02/01/2018 00:30,1.05,0.52
02/01/2018 00:45,1.03,0.52
02/01/2018 01:00,1.04,0.51
02/01/2018 01:15,1.04,0.51
02/01/2018 01:30,1.04,0.52
02/01/2018 01:45,1.03,0.52
02/01/2018 02:00,1.04,0.53
02/01/2018 02:15,1.04,0.53
02/01/2018 02:30,1.05,0.52
02/01/2018 02:45,1.04,0.53
02/01/2018 03:00,1.02,0.52
02/01/2018 03:15,1.04,0.52
02/01/2018 03:30,1.04,0.51
02/01/2018 03:45,1.04,0.5
02/01/2018 04:00,1.05,0.5
02/01/2018 04:15,1.04,0.52
02/01/2018 04:30,1.04,0.51
02/01/2018 04:45,1.07,0.54
02/01/2018 05:00,1.08,0.54
02/01/2018 05:15,1.08,0.53
02/01/2018 05:30,1.08,0.55
02/01/2018 05:45,1.07,0.53
02/01/2018 06:00,1.07,0.52
02/01/2018 06:15,1.04,0.52
02/01/2018 06:30,1.03,0.53
02/01/2018 06:45,1.1,0.54
02/01/2018 07:00,1.3,0.57
02/01/2018 07:15,1.59,0.67
02/01/2018 07:30,1.47,0.65
02/01/2018 07:45,1.53,0.65
02/01/2018 08:00,1.6,0.68
02/01/2018 08:15,1.61,0.66
02/01/2018 08:30,1.57,0.66
02/01/2018 08:45,1.59,0.65
02/01/2018 09:00,1.64,0.69
02/01/2018 09:15,1.66,0.7
02/01/2018 09:30,1.67,0.71
02/01/2018 09:45,1.7,0.75
02/01/2018 10:00,1.69,0.74
02/01/2018 10:15,1.71,0.75
02/01/2018 10:30,1.71,0.75
02/01/2018 10:45,1.71,0.74
02/01/2018 11:00,1.78,0.78
02/01/2018 11:15,1.77,0.77
02/01/2018 11:30,1.75,0.77
02/01/2018 11:45,1.78,0.78
02/01/2018 12:00,1.76,0.76
02/01/2018 12:15,1.75,0.74
02/01/2018 12:30,1.77,0.74
02/01/2018 12:45,1.76,0.74
02/01/2018 13:00,1.79,0.78
02/01/2018 13:15,1.83,0.81
02/01/2018 13:30,1.84,0.8
02/01/2018 13:45,1.79,0.79
02/01/2018 14:00,1.83,0.8
02/01/2018 14:15,1.78,0.78
02/01/2018 14:30,1.85,0.79
02/01/2018 14:45,1.73,0.75
02/01/2018 15:00,1.73,0.76
02/01/2018 15:15,1.76,0.77
02/01/2018 15:30,1.77,0.77
02/01/2018 15:45,1.75,0.76
02/01/2018 16:00,1.73,0.76
02/01/2018 16:15,1.76,0.77
02/01/2018 16:30,1.71,0.75
02/01/2018 16:45,1.67,0.78
02/01/2018 17:00,1.63,0.77
02/01/2018 17:15,1.63,0.77
02/01/2018 17:30,1.63,0.77
02/01/2018 17:45,1.62,0.75
02/01/2018 18:00,1.59,0.75
02/01/2018 18:15,1.58,0.73
02/01/2018 18:30,1.56,0.73
02/01/2018 18:45,1.53,0.71
02/01/2018 19:00,1.45,0.67
02/01/2018 19:15,1.44,0.68
02/01/2018 19:30,1.42,0.66
02/01/2018 19:45,1.4,0.64
02/01/2018 20:00,1.38,0.62
02/01/2018 20:15,1.37,0.62
02/01/2018 20:30,1.39,0.62
02/01/2018 20:45,1.38,0.6
02/01/2018 21:00,1.39,0.61
02/01/2018 21:15,1.43,0.62
02/01/2018 21:30,1.41,0.63
02/01/2018 21:45,1.41,0.64
02/01/2018 22:00,1.4,0.62
02/01/2018 22:15,1.41,0.63
02/01/2018 22:30,1.33,0.59
02/01/2018 22:45,1.07,0.54
02/01/2018 23:00,1.06,0.52
02/01/2018 23:15,1.05,0.54
02/01/2018 23:30,1.05,0.53
02/01/2018 23:45,1.04,0.54
03/01/2018 00:00,1.07,0.52
03/01/2018 00:15,1.05,0.51
03/01/2018 00:30,1.06,0.52
03/01/2018 00:45,1.05,0.51
03/01/2018 01:00,1.05,0.53
03/01/2018 01:15,1.06,0.53
03/01/2018 01:30,1.03,0.53
03/01/2018 01:45,1.04,0.52
03/01/2018 02:00,1.05,0.52
03/01/2018 02:15,1.05,0.54
03/01/2018 02:30,1.05,0.52
03/01/2018 02:45,1.05,0.52
03/01/2018 03:00,1.05,0.52
03/01/2018 03:15,1.06,0.53
03/01/2018 03:30,1.05,0.53
03/01/2018 03:45,1.03,0.52
03/01/2018 04:00,1.02,0.53
03/01/2018 04:15,1.04,0.53
03/01/2018 04:30,1.03,0.52
03/01/2018 04:45,1.05,0.54
03/01/2018 05:00,1.06,0.55
03/01/2018 05:15,1.06,0.55
03/01/2018 05:30,1.07,0.54
03/01/2018 05:45,1.08,0.53
03/01/2018 06:00,1.08,0.54
03/01/2018 06:15,1.07,0.54
03/01/2018 06:30,1.05,0.54
03/01/2018 06:45,1.1,0.53
03/01/2018 07:00,1.26,0.57
03/01/2018 07:15,1.37,0.64
03/01/2018 07:30,1.42,0.65
03/01/2018 07:45,1.43,0.63
03/01/2018 08:00,1.48,0.64
03/01/2018 08:15,1.57,0.65
03/01/2018 08:30,1.55,0.65
03/01/2018 08:45,1.57,0.64
03/01/2018 09:00,1.62,0.65
03/01/2018 09:15,1.61,0.67
03/01/2018 09:30,1.61,0.68
03/01/2018 09:45,1.63,0.68
03/01/2018 10:00,1.64,0.67
03/01/2018 10:15,1.64,0.69
03/01/2018 10:30,1.65,0.68
03/01/2018 10:45,1.66,0.67
03/01/2018 11:00,1.65,0.68
03/01/2018 11:15,1.63,0.67
03/01/2018 11:30,1.65,0.68
03/01/2018 11:45,1.68,0.67
03/01/2018 12:00,1.67,0.68
03/01/2018 12:15,1.72,0.69
03/01/2018 12:30,1.73,0.69
03/01/2018 12:45,1.73,0.71
03/01/2018 13:00,1.81,0.79
03/01/2018 13:15,1.81,0.78
03/01/2018 13:30,1.78,0.79
03/01/2018 13:45,1.8,0.79
03/01/2018 14:00,1.78,0.78
03/01/2018 14:15,1.7,0.7
03/01/2018 14:30,1.69,0.69
03/01/2018 14:45,1.72,0.71
03/01/2018 15:00,1.7,0.7
03/01/2018 15:15,1.69,0.71
03/01/2018 15:30,1.73,0.74
03/01/2018 15:45,1.73,0.75
03/01/2018 16:00,1.7,0.77
03/01/2018 16:15,1.63,0.76
03/01/2018 16:30,1.62,0.76
03/01/2018 16:45,1.61,0.75
03/01/2018 17:00,1.59,0.74
03/01/2018 17:15,1.57,0.73
03/01/2018 17:30,1.57,0.72
03/01/2018 17:45,1.55,0.73
03/01/2018 18:00,1.53,0.72
03/01/2018 18:15,1.52,0.69
03/01/2018 18:30,1.48,0.67
03/01/2018 18:45,1.48,0.66
03/01/2018 19:00,1.44,0.66
03/01/2018 19:15,1.45,0.68
03/01/2018 19:30,1.45,0.67
03/01/2018 19:45,1.43,0.66
03/01/2018 20:00,1.4,0.64
03/01/2018 20:15,1.37,0.64
03/01/2018 20:30,1.38,0.63
03/01/2018 20:45,1.39,0.63
03/01/2018 21:00,1.41,0.64
03/01/2018 21:15,1.4,0.63
03/01/2018 21:30,1.41,0.62
03/01/2018 21:45,1.39,0.63
03/01/2018 22:00,1.38,0.62
03/01/2018 22:15,1.16,0.55
03/01/2018 22:30,1.15,0.53
03/01/2018 22:45,1.09,0.53
03/01/2018 23:00,1.07,0.53
03/01/2018 23:15,1.05,0.53
03/01/2018 23:30,1.06,0.53
03/01/2018 23:45,1.04,0.52
04/01/2018 00:00,1.05,0.53
04/01/2018 00:15,1.06,0.51
04/01/2018 00:30,1.06,0.51
04/01/2018 00:45,1.05,0.5
04/01/2018 01:00,1.05,0.52
04/01/2018 01:15,1.05,0.52
04/01/2018 01:30,1.05,0.52
04/01/2018 01:45,1.05,0.52
04/01/2018 02:00,1.04,0.51
04/01/2018 02:15,1.06,0.53
04/01/2018 02:30,1.04,0.52
04/01/2018 02:45,1.04,0.51
04/01/2018 03:00,1.04,0.52
04/01/2018 03:15,1.03,0.52
04/01/2018 03:30,1.04,0.52
04/01/2018 03:45,1.05,0.52
04/01/2018 04:00,1.03,0.52
04/01/2018 04:15,1.04,0.52
04/01/2018 04:30,1.03,0.51
04/01/2018 04:45,1.07,0.55
04/01/2018 05:00,1.08,0.55
04/01/2018 05:15,1.07,0.53
04/01/2018 05:30,1.08,0.53
04/01/2018 05:45,1.07,0.52
04/01/2018 06:00,1.06,0.52
04/01/2018 06:15,1.06,0.51
04/01/2018 06:30,1.06,0.52
04/01/2018 06:45,1.14,0.56
04/01/2018 07:00,1.27,0.59
04/01/2018 07:15,1.41,0.61
04/01/2018 07:30,1.47,0.65
04/01/2018 07:45,1.49,0.64
04/01/2018 08:00,1.55,0.65
04/01/2018 08:15,1.57,0.65
04/01/2018 08:30,1.57,0.67
04/01/2018 08:45,1.61,0.68
04/01/2018 09:00,1.64,0.69
04/01/2018 09:15,1.66,0.7
04/01/2018 09:30,1.63,0.69
04/01/2018 09:45,1.67,0.7
04/01/2018 10:00,1.72,0.75
04/01/2018 10:15,1.71,0.77
04/01/2018 10:30,1.72,0.79
04/01/2018 10:45,1.76,0.81
04/01/2018 11:00,1.73,0.79
04/01/2018 11:15,1.73,0.8
04/01/2018 11:30,1.75,0.79
04/01/2018 11:45,1.77,0.75
04/01/2018 12:00,1.78,0.76
04/01/2018 12:15,1.79,0.76
04/01/2018 12:30,1.8,0.77
04/01/2018 12:45,1.78,0.75
04/01/2018 13:00,1.81,0.76
04/01/2018 13:15,1.79,0.79
04/01/2018 13:30,1.81,0.79
04/01/2018 13:45,1.8,0.78
04/01/2018 14:00,1.81,0.81
04/01/2018 14:15,1.8,0.8
04/01/2018 14:30,1.81,0.82
04/01/2018 14:45,1.8,0.82
04/01/2018 15:00,1.8,0.81
04/01/2018 15:15,1.8,0.82
04/01/2018 15:30,1.76,0.79
04/01/2018 15:45,1.79,0.79
04/01/2018 16:00,1.75,0.78
04/01/2018 16:15,1.77,0.77
04/01/2018 16:30,1.77,0.77
04/01/2018 16:45,1.75,0.78
04/01/2018 17:00,1.75,0.8
04/01/2018 17:15,1.74,0.79
04/01/2018 17:30,1.74,0.79
04/01/2018 17:45,1.74,0.79
04/01/2018 18:00,1.71,0.8
04/01/2018 18:15,1.68,0.78
04/01/2018 18:30,1.69,0.77
04/01/2018 18:45,1.65,0.76
04/01/2018 19:00,1.52,0.74
04/01/2018 19:15,1.54,0.74
04/01/2018 19:30,1.53,0.71
04/01/2018 19:45,1.49,0.69
04/01/2018 20:00,1.43,0.65
04/01/2018 20:15,1.4,0.65
04/01/2018 20:30,1.39,0.65
04/01/2018 20:45,1.41,0.63
04/01/2018 21:00,1.4,0.64
04/01/2018 21:15,1.44,0.65
04/01/2018 21:30,1.45,0.65
04/01/2018 21:45,1.45,0.64
04/01/2018 22:00,1.46,0.64
04/01/2018 22:15,1.45,0.65
04/01/2018 22:30,1.39,0.63
04/01/2018 22:45,1.11,0.56
04/01/2018 23:00,1.1,0.54
04/01/2018 23:15,1.07,0.54
04/01/2018 23:30,1.06,0.52
04/01/2018 23:45,1.1,0.52
05/01/2018 00:00,1.06,0.52
05/01/2018 00:15,1.07,0.51
05/01/2018 00:30,1.07,0.51
05/01/2018 00:45,1.06,0.51
05/01/2018 01:00,1.09,0.53
05/01/2018 01:15,1.07,0.53
05/01/2018 01:30,1.06,0.52
05/01/2018 01:45,1.04,0.51
05/01/2018 02:00,1.06,0.53
05/01/2018 02:15,1.06,0.55
05/01/2018 02:30,1.03,0.53
05/01/2018 02:45,1.05,0.54
05/01/2018 03:00,1.05,0.53
05/01/2018 03:15,1.05,0.52
05/01/2018 03:30,1.06,0.53
05/01/2018 03:45,1.06,0.52
05/01/2018 04:00,1.06,0.51
05/01/2018 04:15,1.06,0.52
05/01/2018 04:30,1.05,0.52
05/01/2018 04:45,1.09,0.55
05/01/2018 05:00,1.11,0.55
05/01/2018 05:15,1.09,0.55
05/01/2018 05:30,1.08,0.55
05/01/2018 05:45,1.08,0.54
05/01/2018 06:00,1.06,0.53
05/01/2018 06:15,1.05,0.53
05/01/2018 06:30,1.05,0.53
05/01/2018 06:45,1.1,0.55
05/01/2018 07:00,1.24,0.59
05/01/2018 07:15,1.44,0.68
05/01/2018 07:30,1.44,0.67
05/01/2018 07:45,1.54,0.67
05/01/2018 08:00,1.57,0.69
05/01/2018 08:15,1.59,0.71
05/01/2018 08:30,1.59,0.71
05/01/2018 08:45,1.63,0.69
05/01/2018 09:00,1.67,0.7
05/01/2018 09:15,1.66,0.71
05/01/2018 09:30,1.7,0.72
05/01/2018 09:45,1.76,0.76
05/01/2018 10:00,1.8,0.76
05/01/2018 10:15,1.77,0.76
05/01/2018 10:30,1.8,0.76
05/01/2018 10:45,1.78,0.75
05/01/2018 11:00,1.81,0.74
05/01/2018 11:15,1.82,0.77
05/01/2018 11:30,1.84,0.81
05/01/2018 11:45,1.88,0.82
05/01/2018 12:00,1.87,0.82
05/01/2018 12:15,1.88,0.8
05/01/2018 12:30,1.9,0.82
05/01/2018 12:45,1.89,0.81
05/01/2018 13:00,1.9,0.82
05/01/2018 13:15,1.87,0.83
05/01/2018 13:30,1.87,0.82
05/01/2018 13:45,1.89,0.82
05/01/2018 14:00,1.89,0.83
05/01/2018 14:15,1.89,0.81
05/01/2018 14:30,1.86,0.81
05/01/2018 14:45,1.87,0.82
05/01/2018 15:00,1.88,0.83
05/01/2018 15:15,1.86,0.84
05/01/2018 15:30,1.87,0.84
05/01/2018 15:45,1.85,0.83
05/01/2018 16:00,1.8,0.82
05/01/2018 16:15,1.79,0.82
05/01/2018 16:30,1.78,0.85
05/01/2018 16:45,1.81,0.85
05/01/2018 17:00,1.78,0.83
05/01/2018 17:15,1.78,0.85
05/01/2018 17:30,1.79,0.86
05/01/2018 17:45,1.78,0.84
05/01/2018 18:00,1.79,0.86
05/01/2018 18:15,1.74,0.82
05/01/2018 18:30,1.71,0.77
05/01/2018 18:45,1.73,0.77
05/01/2018 19:00,1.7,0.77
05/01/2018 19:15,1.66,0.77
05/01/2018 19:30,1.69,0.77
05/01/2018 19:45,1.67,0.77
05/01/2018 20:00,1.64,0.73
05/01/2018 20:15,1.62,0.73
05/01/2018 20:30,1.61,0.74
05/01/2018 20:45,1.61,0.74
05/01/2018 21:00,1.64,0.73
05/01/2018 21:15,1.64,0.73
05/01/2018 21:30,1.63,0.73
05/01/2018 21:45,1.63,0.74
05/01/2018 22:00,1.59,0.7
05/01/2018 22:15,1.56,0.7
05/01/2018 22:30,1.54,0.69
05/01/2018 22:45,1.23,0.61
05/01/2018 23:00,1.23,0.61
05/01/2018 23:15,1.23,0.62
05/01/2018 23:30,1.21,0.61
05/01/2018 23:45,1.19,0.61
06/01/2018 00:00,1.2,0.61
06/01/2018 00:15,1.21,0.6
06/01/2018 00:30,1.18,0.59
06/01/2018 00:45,1.18,0.59
06/01/2018 01:00,1.18,0.6
06/01/2018 01:15,1.19,0.63
06/01/2018 01:30,1.17,0.62
06/01/2018 01:45,1.17,0.6
06/01/2018 02:00,1.18,0.62
06/01/2018 02:15,1.2,0.62
06/01/2018 02:30,1.16,0.6
06/01/2018 02:45,1.15,0.59
06/01/2018 03:00,1.16,0.59
06/01/2018 03:15,1.17,0.57
06/01/2018 03:30,1.17,0.58
06/01/2018 03:45,1.15,0.57
06/01/2018 04:00,1.17,0.57
06/01/2018 04:15,1.16,0.57
06/01/2018 04:30,1.16,0.56
06/01/2018 04:45,1.15,0.56
06/01/2018 05:00,1.14,0.58
06/01/2018 05:15,1.14,0.56
06/01/2018 05:30,1.19,0.62
06/01/2018 05:45,1.18,0.63
06/01/2018 06:00,1.17,0.64
06/01/2018 06:15,1.13,0.62
06/01/2018 06:30,1.11,0.59
06/01/2018 06:45,1.1,0.58
06/01/2018 07:00,1.15,0.63
06/01/2018 07:15,1.37,0.73
06/01/2018 07:30,1.5,0.74
06/01/2018 07:45,1.52,0.74
06/01/2018 08:00,1.52,0.74
06/01/2018 08:15,1.56,0.75
06/01/2018 08:30,1.62,0.78
06/01/2018 08:45,1.64,0.78
06/01/2018 09:00,1.67,0.82
06/01/2018 09:15,1.83,0.83
06/01/2018 09:30,1.72,0.82
06/01/2018 09:45,1.74,0.82
06/01/2018 10:00,1.75,0.82
06/01/2018 10:15,1.74,0.81
06/01/2018 10:30,1.78,0.82
06/01/2018 10:45,1.78,0.83
06/01/2018 11:00,1.73,0.82
06/01/2018 11:15,1.85,0.85
06/01/2018 11:30,1.84,0.86
06/01/2018 11:45,1.93,0.88
06/01/2018 12:00,1.89,0.85
06/01/2018 12:15,1.9,0.87
06/01/2018 12:30,1.88,0.85
06/01/2018 12:45,1.87,0.86
06/01/2018 13:00,1.87,0.86
06/01/2018 13:15,1.9,0.85
06/01/2018 13:30,1.9,0.88
06/01/2018 13:45,1.92,0.89
06/01/2018 14:00,1.9,0.88
06/01/2018 14:15,1.9,0.89
06/01/2018 14:30,1.89,0.88
06/01/2018 14:45,1.89,0.87
06/01/2018 15:00,1.91,0.88
06/01/2018 15:15,1.89,0.87
06/01/2018 15:30,1.91,0.88
06/01/2018 15:45,1.92,0.89
06/01/2018 16:00,1.94,0.88
06/01/2018 16:15,1.9,0.86
06/01/2018 16:30,1.88,0.87
06/01/2018 16:45,1.9,0.87
06/01/2018 17:00,1.76,0.78
06/01/2018 17:15,1.35,0.68
06/01/2018 17:30,1.34,0.65
06/01/2018 17:45,1.32,0.65
06/01/2018 18:00,1.31,0.66
06/01/2018 18:15,1.31,0.68
06/01/2018 18:30,1.31,0.67
06/01/2018 18:45,1.23,0.64
06/01/2018 19:00,1.25,0.64
06/01/2018 19:15,1.25,0.64
06/01/2018 19:30,1.24,0.64
06/01/2018 19:45,1.22,0.62
06/01/2018 20:00,1.22,0.63
06/01/2018 20:15,1.23,0.62
06/01/2018 20:30,1.21,0.61
06/01/2018 20:45,1.18,0.62
06/01/2018 21:00,1.22,0.61
06/01/2018 21:15,1.25,0.64
06/01/2018 21:30,1.25,0.61
06/01/2018 21:45,1.25,0.62
06/01/2018 22:00,1.27,0.63
06/01/2018 22:15,1.27,0.62
06/01/2018 22:30,1.23,0.62
06/01/2018 22:45,1.24,0.61
06/01/2018 23:00,1.22,0.61
06/01/2018 23:15,1.21,0.6
06/01/2018 23:30,1.23,0.62
06/01/2018 23:45,1.21,0.61
07/01/2018 00:00,1.2,0.61
07/01/2018 00:15,1.2,0.61
07/01/2018 00:30,1.2,0.59
07/01/2018 00:45,1.2,0.61
07/01/2018 01:00,1.19,0.63
07/01/2018 01:15,1.19,0.6
07/01/2018 01:30,1.19,0.59
07/01/2018 01:45,1.19,0.57
07/01/2018 02:00,1.18,0.59
07/01/2018 02:15,1.19,0.61
07/01/2018 02:30,1.19,0.59
07/01/2018 02:45,1.17,0.59
07/01/2018 03:00,1.15,0.61
07/01/2018 03:15,1.17,0.6
07/01/2018 03:30,1.17,0.59
07/01/2018 03:45,1.17,0.6
07/01/2018 04:00,1.15,0.59
07/01/2018 04:15,1.16,0.59
07/01/2018 04:30,1.16,0.59
07/01/2018 04:45,1.15,0.59
07/01/2018 05:00,1.17,0.58
07/01/2018 05:15,1.16,0.58
07/01/2018 05:30,1.16,0.58
07/01/2018 05:45,1.16,0.58
07/01/2018 06:00,1.16,0.58
07/01/2018 06:15,1.14,0.57
07/01/2018 06:30,1.11,0.56
07/01/2018 06:45,1.09,0.56
07/01/2018 07:00,1.09,0.56
07/01/2018 07:15,1.07,0.56
07/01/2018 07:30,1.07,0.57
07/01/2018 07:45,1.1,0.56
07/01/2018 08:00,1.11,0.57
07/01/2018 08:15,1.13,0.56
07/01/2018 08:30,1.15,0.59
07/01/2018 08:45,1.18,0.62
07/01/2018 09:00,1.19,0.63
07/01/2018 09:15,1.18,0.64
07/01/2018 09:30,1.19,0.63
07/01/2018 09:45,1.18,0.63
07/01/2018 10:00,1.18,0.62
07/01/2018 10:15,1.16,0.64
07/01/2018 10:30,1.17,0.62
07/01/2018 10:45,1.16,0.63
07/01/2018 11:00,1.16,0.62
07/01/2018 11:15,1.17,0.61
07/01/2018 11:30,1.15,0.62
07/01/2018 11:45,1.15,0.61
07/01/2018 12:00,1.16,0.61
07/01/2018 12:15,1.16,0.61
07/01/2018 12:30,1.16,0.62
07/01/2018 12:45,1.17,0.63
07/01/2018 13:00,1.19,0.63
07/01/2018 13:15,1.18,0.63
07/01/2018 13:30,1.18,0.63
07/01/2018 13:45,1.18,0.62
07/01/2018 14:00,1.17,0.62
07/01/2018 14:15,1.19,0.63
07/01/2018 14:30,1.17,0.62
07/01/2018 14:45,1.16,0.62
07/01/2018 15:00,1.15,0.61
07/01/2018 15:15,1.19,0.62
07/01/2018 15:30,1.17,0.61
07/01/2018 15:45,1.15,0.58
07/01/2018 16:00,1.12,0.56
07/01/2018 16:15,1.13,0.57
07/01/2018 16:30,1.13,0.57
07/01/2018 16:45,1.13,0.59
07/01/2018 17:00,1.12,0.57
07/01/2018 17:15,1.12,0.58
07/01/2018 17:30,1.13,0.59
07/01/2018 17:45,1.13,0.57
07/01/2018 18:00,1.14,0.57
07/01/2018 18:15,1.16,0.59
07/01/2018 18:30,1.15,0.59
07/01/2018 18:45,1.16,0.61
07/01/2018 19:00,1.16,0.61
07/01/2018 19:15,1.13,0.59
07/01/2018 19:30,1.13,0.6
07/01/2018 19:45,1.14,0.6
07/01/2018 20:00,1.14,0.58
07/01/2018 20:15,1.13,0.57
07/01/2018 20:30,1.13,0.58
07/01/2018 20:45,1.13,0.56
07/01/2018 21:00,1.12,0.55
07/01/2018 21:15,1.16,0.56
07/01/2018 21:30,1.16,0.56
07/01/2018 21:45,1.15,0.57
07/01/2018 22:00,1.15,0.57
07/01/2018 22:15,1.13,0.57
07/01/2018 22:30,1.13,0.56
07/01/2018 22:45,1.15,0.56
07/01/2018 23:00,1.13,0.56
07/01/2018 23:15,1.13,0.57
07/01/2018 23:30,1.15,0.56
07/01/2018 23:45,1.13,0.56
08/01/2018 00:00,1.13,0.56
08/01/2018 00:15,1.13,0.55
08/01/2018 00:30,1.11,0.55
08/01/2018 00:45,1.12,0.55
08/01/2018 01:00,1.11,0.55
08/01/2018 01:15,1.12,0.55
08/01/2018 01:30,1.13,0.55
08/01/2018 01:45,1.11,0.54
08/01/2018 02:00,1.11,0.57
08/01/2018 02:15,1.12,0.58
08/01/2018 02:30,1.1,0.57
08/01/2018 02:45,1.11,0.57
08/01/2018 03:00,1.1,0.57
08/01/2018 03:15,1.12,0.58
08/01/2018 03:30,1.11,0.56
08/01/2018 03:45,1.12,0.58
08/01/2018 04:00,1.1,0.55
08/01/2018 04:15,1.11,0.55
08/01/2018 04:30,1.12,0.55
08/01/2018 04:45,1.13,0.57
08/01/2018 05:00,1.13,0.58
08/01/2018 05:15,1.14,0.57
08/01/2018 05:30,1.16,0.57
08/01/2018 05:45,1.17,0.58
08/01/2018 06:00,1.22,0.61
08/01/2018 06:15,1.27,0.6
08/01/2018 06:30,1.29,0.62
08/01/2018 06:45,1.34,0.63
08/01/2018 07:00,1.56,0.68
08/01/2018 07:15,1.89,0.8
08/01/2018 07:30,1.8,0.8
08/01/2018 07:45,1.93,0.83
08/01/2018 08:00,1.95,0.83
08/01/2018 08:15,2.06,0.85
08/01/2018 08:30,2.06,0.86
08/01/2018 08:45,2.08,0.83
08/01/2018 09:00,2.06,0.8
08/01/2018 09:15,2.12,0.88
08/01/2018 09:30,2.13,0.91
08/01/2018 09:45,2.19,0.95
08/01/2018 10:00,2.19,0.94
08/01/2018 10:15,2.16,0.92
08/01/2018 10:30,2.18,0.94
08/01/2018 10:45,2.16,0.93
08/01/2018 11:00,2.19,0.94
08/01/2018 11:15,2.22,0.95
08/01/2018 11:30,2.3,1
08/01/2018 11:45,2.17,0.97
08/01/2018 12:00,2.14,0.95
08/01/2018 12:15,2.35,0.96
08/01/2018 12:30,2.3,1
08/01/2018 12:45,2.29,1.02
08/01/2018 13:00,2.32,1.05
08/01/2018 13:15,2.32,1.06
08/01/2018 13:30,2.34,1.06
08/01/2018 13:45,2.32,1.04
08/01/2018 14:00,2.3,1.05
08/01/2018 14:15,2.24,1.03
08/01/2018 14:30,2.35,1.01
08/01/2018 14:45,2.21,0.99
08/01/2018 15:00,2.19,0.97
08/01/2018 15:15,2.19,0.98
08/01/2018 15:30,2.3,1
08/01/2018 15:45,2.24,0.98
08/01/2018 16:00,2.24,0.99
08/01/2018 16:15,2.15,0.93
08/01/2018 16:30,2.07,0.89
08/01/2018 16:45,2.04,0.88
08/01/2018 17:00,2.03,0.87
08/01/2018 17:15,2,0.88
08/01/2018 17:30,1.96,0.86
08/01/2018 17:45,1.91,0.86
08/01/2018 18:00,1.87,0.84
08/01/2018 18:15,1.87,0.85
08/01/2018 18:30,1.89,0.84
08/01/2018 18:45,1.81,0.82
08/01/2018 19:00,1.82,0.83
08/01/2018 19:15,1.77,0.81
08/01/2018 19:30,1.76,0.8
08/01/2018 19:45,1.75,0.81
08/01/2018 20:00,1.7,0.78
08/01/2018 20:15,1.67,0.76
08/01/2018 20:30,1.67,0.74
08/01/2018 20:45,1.62,0.73
08/01/2018 21:00,1.64,0.74
08/01/2018 21:15,1.63,0.73
08/01/2018 21:30,1.68,0.74
08/01/2018 21:45,1.64,0.72
08/01/2018 22:00,1.65,0.72
08/01/2018 22:15,1.56,0.7
08/01/2018 22:30,1.5,0.69
08/01/2018 22:45,1.21,0.61
08/01/2018 23:00,1.2,0.6
08/01/2018 23:15,1.19,0.61
08/01/2018 23:30,1.21,0.62
08/01/2018 23:45,1.21,0.6
09/01/2018 00:00,1.19,0.59
09/01/2018 00:15,1.2,0.6
09/01/2018 00:30,1.18,0.59
09/01/2018 00:45,1.17,0.6
09/01/2018 01:00,1.17,0.58
09/01/2018 01:15,1.18,0.59
09/01/2018 01:30,1.18,0.58
09/01/2018 01:45,1.17,0.58
09/01/2018 02:00,1.16,0.6
09/01/2018 02:15,1.18,0.6
09/01/2018 02:30,1.16,0.58
09/01/2018 02:45,1.16,0.58
09/01/2018 03:00,1.17,0.59
09/01/2018 03:15,1.17,0.59
09/01/2018 03:30,1.18,0.6
09/01/2018 03:45,1.18,0.59
09/01/2018 04:00,1.17,0.58
09/01/2018 04:15,1.17,0.58
09/01/2018 04:30,1.17,0.58
09/01/2018 04:45,1.18,0.6
09/01/2018 05:00,1.18,0.6
09/01/2018 05:15,1.19,0.59
09/01/2018 05:30,1.19,0.6
09/01/2018 05:45,1.21,0.61
09/01/2018 06:00,1.23,0.6
09/01/2018 06:15,1.24,0.6
09/01/2018 06:30,1.27,0.64
09/01/2018 06:45,1.33,0.65
09/01/2018 07:00,1.53,0.69
09/01/2018 07:15,1.73,0.72
09/01/2018 07:30,1.77,0.73
09/01/2018 07:45,1.79,0.76
09/01/2018 08:00,1.86,0.77
09/01/2018 08:15,1.9,0.8
09/01/2018 08:30,1.95,0.8
09/01/2018 08:45,2.21,0.88
09/01/2018 09:00,2.15,0.9
09/01/2018 09:15,2.15,0.92
09/01/2018 09:30,2.17,0.92
09/01/2018 09:45,2.23,0.92
09/01/2018 10:00,2.1,0.89
09/01/2018 10:15,2.2,0.91
09/01/2018 10:30,2.27,0.91
09/01/2018 10:45,2.25,0.97
09/01/2018 11:00,2.26,0.99
09/01/2018 11:15,2.27,0.99
09/01/2018 11:30,2.26,1.01
09/01/2018 11:45,2.3,1.02
09/01/2018 12:00,2.32,1
09/01/2018 12:15,2.34,1.02
09/01/2018 12:30,2.34,1.02
09/01/2018 12:45,2.34,1.03
09/01/2018 13:00,2.31,1.03
09/01/2018 13:15,2.31,1.01
09/01/2018 13:30,2.28,1
09/01/2018 13:45,2.28,1
09/01/2018 14:00,2.3,1
09/01/2018 14:15,2.31,1.01
09/01/2018 14:30,2.28,1.02
09/01/2018 14:45,2.25,1.03
09/01/2018 15:00,2.24,1.02
09/01/2018 15:15,2.21,1
09/01/2018 15:30,2.16,0.96
09/01/2018 15:45,2.14,0.97
09/01/2018 16:00,2.13,0.97
09/01/2018 16:15,2.13,0.97
09/01/2018 16:30,2.08,0.96
09/01/2018 16:45,1.97,0.88
09/01/2018 17:00,1.94,0.85
09/01/2018 17:15,1.89,0.84
09/01/2018 17:30,1.85,0.82
09/01/2018 17:45,1.87,0.86
09/01/2018 18:00,1.81,0.84
09/01/2018 18:15,1.75,0.81
09/01/2018 18:30,1.74,0.81
09/01/2018 18:45,1.71,0.79
09/01/2018 19:00,1.68,0.78
09/01/2018 19:15,1.67,0.75
09/01/2018 19:30,1.59,0.7
09/01/2018 19:45,1.55,0.7
09/01/2018 20:00,1.55,0.68
09/01/2018 20:15,1.52,0.68
09/01/2018 20:30,1.5,0.68
09/01/2018 20:45,1.51,0.66
09/01/2018 21:00,1.54,0.66
09/01/2018 21:15,1.52,0.66
09/01/2018 21:30,1.54,0.66
09/01/2018 21:45,1.53,0.65
09/01/2018 22:00,1.52,0.65
09/01/2018 22:15,1.53,0.66
09/01/2018 22:30,1.42,0.63
09/01/2018 22:45,1.18,0.58
09/01/2018 23:00,1.19,0.59
09/01/2018 23:15,1.2,0.59
09/01/2018 23:30,1.16,0.58